Time,TemperatureF,DewpointF,PressureIn,WindDirection,WindDirectionDegrees,WindSpeedMPH,WindSpeedGustMPH,Humidity,HourlyPrecipIn,Conditions,Clouds,dailyrainin,SoftwareType,DateUTC
2013-03-26 00:03:00,30.0,23.0,-100.00,North,-999,-999.0,-999.0,76,-99.99,,,-99.99,,2013-03-26 04:03:00,
2013-03-26 00:12:00,30.0,23.0,-100.00,North,-999,-999.0,-999.0,76,-99.99,,,-99.99,,2013-03-26 04:12:00,
2013-03-26 00:23:00,30.0,23.0,-100.00,North,-999,-999.0,-999.0,76,-99.99,,,-99.99,,2013-03-26 04:23:00,
2013-03-26 00:33:00,30.0,23.0,-100.00,North,-999,-999.0,-999.0,76,-99.99,,,-99.99,,2013-03-26 04:33:00,
2013-03-26 00:43:00,30.0,23.0,-100.00,North,-999,-999.0,-999.0,76,-99.99,,,-99.99,,2013-03-26 04:43:00,
2013-03-26 00:53:00,30.0,23.0,-100.00,North,-999,-999.0,-999.0,76,-99.99,,,-99.99,,2013-03-26 04:53:00,
2013-03-26 01:02:00,30.0,23.0,-100.00,North,-999,-999.0,-999.0,76,-99.99,,,-99.99,,2013-03-26 05:02:00,
2013-03-26 01:12:00,30.0,23.0,-100.00,North,-999,-999.0,-999.0,76,-99.99,,,-99.99,,2013-03-26 05:12:00,
2013-03-26 01:22:00,30.0,23.0,-100.00,North,-999,-999.0,-999.0,76,-99.99,,,-99.99,,2013-03-26 05:22:00,
2013-03-26 01:32:00,30.0,23.0,-100.00,North,-999,-999.0,-999.0,76,-99.99,,,-99.99,,2013-03-26 05:32:00,
2013-03-26 01:42:00,30.0,23.0,-100.00,North,-999,-999.0,-999.0,76,-99.99,,,-99.99,,2013-03-26 05:42:00,
2013-03-26 01:52:00,30.0,24.0,-100.00,North,-999,-999.0,-999.0,77,-99.99,,,-99.99,,2013-03-26 05:52:00,
2013-03-26 02:02:00,30.0,24.0,-100.00,North,-999,-999.0,-999.0,78,-99.99,,,-99.99,,2013-03-26 06:02:00,
2013-03-26 02:12:00,30.0,24.0,-100.00,North,-999,-999.0,-999.0,78,-99.99,,,-99.99,,2013-03-26 06:12:00,
2013-03-26 02:22:00,30.0,25.0,-100.00,North,-999,-999.0,-999.0,80,-99.99,,,-99.99,,2013-03-26 06:22:00,
2013-03-26 02:32:00,30.0,25.0,-100.00,North,-999,-999.0,-999.0,80,-99.99,,,-99.99,,2013-03-26 06:32:00,
2013-03-26 02:42:00,30.0,25.0,-100.00,North,-999,-999.0,-999.0,80,-99.99,,,-99.99,,2013-03-26 06:42:00,
2013-03-26 02:52:00,30.0,25.0,-100.00,North,-999,-999.0,-999.0,81,-99.99,,,-99.99,,2013-03-26 06:52:00,
2013-03-26 03:02:00,29.0,24.0,-100.00,North,-999,-999.0,-999.0,82,-99.99,,,-99.99,,2013-03-26 07:02:00,
2013-03-26 03:12:00,29.0,24.0,-100.00,North,-999,-999.0,-999.0,82,-99.99,,,-99.99,,2013-03-26 07:12:00,
2013-03-26 03:22:00,29.0,24.0,-100.00,North,-999,-999.0,-999.0,81,-99.99,,,-99.99,,2013-03-26 07:22:00,
2013-03-26 03:33:00,29.0,24.0,-100.00,North,-999,-999.0,-999.0,81,-99.99,,,-99.99,,2013-03-26 07:33:00,
2013-03-26 03:42:00,29.0,24.0,-100.00,North,-999,-999.0,-999.0,81,-99.99,,,-99.99,,2013-03-26 07:42:00,
2013-03-26 03:53:00,29.0,24.0,-100.00,North,-999,-999.0,-999.0,81,-99.99,,,-99.99,,2013-03-26 07:53:00,
2013-03-26 04:02:00,29.0,24.0,-100.00,North,-999,-999.0,-999.0,81,-99.99,,,-99.99,,2013-03-26 08:02:00,
2013-03-26 04:12:00,29.0,24.0,-100.00,North,-999,-999.0,-999.0,81,-99.99,,,-99.99,,2013-03-26 08:12:00,
2013-03-26 04:22:00,29.0,24.0,-100.00,North,-999,-999.0,-999.0,82,-99.99,,,-99.99,,2013-03-26 08:22:00,
2013-03-26 04:32:00,29.0,24.0,-100.00,North,-999,-999.0,-999.0,82,-99.99,,,-99.99,,2013-03-26 08:32:00,
2013-03-26 04:42:00,29.0,24.0,-100.00,North,-999,-999.0,-999.0,82,-99.99,,,-99.99,,2013-03-26 08:42:00,
2013-03-26 04:52:00,29.0,24.0,-100.00,North,-999,-999.0,-999.0,82,-99.99,,,-99.99,,2013-03-26 08:52:00,
2013-03-26 05:02:00,29.0,24.0,-100.00,North,-999,-999.0,-999.0,82,-99.99,,,-99.99,,2013-03-26 09:02:00,
2013-03-26 05:12:00,29.0,24.0,-100.00,North,-999,-999.0,-999.0,82,-99.99,,,-99.99,,2013-03-26 09:12:00,
2013-03-26 05:22:00,28.0,24.0,-100.00,North,-999,-999.0,-999.0,83,-99.99,,,-99.99,,2013-03-26 09:22:00,
2013-03-26 05:33:00,29.0,24.0,-100.00,North,-999,-999.0,-999.0,82,-99.99,,,-99.99,,2013-03-26 09:33:00,
2013-03-26 05:43:00,29.0,24.0,-100.00,North,-999,-999.0,-999.0,82,-99.99,,,-99.99,,2013-03-26 09:43:00,
2013-03-26 05:52:00,28.0,23.0,-100.00,North,-999,-999.0,-999.0,82,-99.99,,,-99.99,,2013-03-26 09:52:00,
2013-03-26 06:03:00,28.0,23.0,-100.00,North,-999,-999.0,-999.0,82,-99.99,,,-99.99,,2013-03-26 10:03:00,
2013-03-26 06:12:00,28.0,23.0,-100.00,North,-999,-999.0,-999.0,82,-99.99,,,-99.99,,2013-03-26 10:12:00,
2013-03-26 06:22:00,28.0,24.0,-100.00,North,-999,-999.0,-999.0,83,-99.99,,,-99.99,,2013-03-26 10:22:00,
2013-03-26 06:32:00,28.0,24.0,-100.00,North,-999,-999.0,-999.0,83,-99.99,,,-99.99,,2013-03-26 10:32:00,
2013-03-26 06:42:00,28.0,24.0,-100.00,North,-999,-999.0,-999.0,83,-99.99,,,-99.99,,2013-03-26 10:42:00,
2013-03-26 06:53:00,28.0,24.0,-100.00,North,-999,-999.0,-999.0,83,-99.99,,,-99.99,,2013-03-26 10:53:00,
2013-03-26 07:03:00,30.0,26.0,-100.00,North,-999,-999.0,-999.0,84,-99.99,,,-99.99,,2013-03-26 11:03:00,
2013-03-26 07:12:00,30.0,26.0,-100.00,North,-999,-999.0,-999.0,84,-99.99,,,-99.99,,2013-03-26 11:12:00,
2013-03-26 07:22:00,28.0,24.0,-100.00,North,-999,-999.0,-999.0,83,-99.99,,,-99.99,,2013-03-26 11:22:00,
2013-03-26 07:32:00,30.0,26.0,-100.00,North,-999,-999.0,-999.0,84,-99.99,,,-99.99,,2013-03-26 11:32:00,
2013-03-26 07:40:00,30.0,25.0,-100.00,North,-999,-999.0,-999.0,82,-99.99,,,-99.99,,2013-03-26 11:40:00,
2013-03-26 07:42:00,30.0,26.0,-100.00,North,-999,-999.0,-999.0,84,-99.99,,,-99.99,,2013-03-26 11:42:00,
2013-03-26 07:52:00,29.0,25.0,-100.00,North,-999,-999.0,-999.0,83,-99.99,,,-99.99,,2013-03-26 11:52:00,
2013-03-26 08:03:00,29.0,25.0,-100.00,North,-999,-999.0,-999.0,83,-99.99,,,-99.99,,2013-03-26 12:03:00,
2013-03-26 08:12:00,30.0,25.0,-100.00,North,-999,-999.0,-999.0,82,-99.99,,,-99.99,,2013-03-26 12:12:00,
2013-03-26 08:22:00,30.0,25.0,-100.00,North,-999,-999.0,-999.0,82,-99.99,,,-99.99,,2013-03-26 12:22:00,
2013-03-26 08:32:00,30.0,25.0,-100.00,North,-999,-999.0,-999.0,82,-99.99,,,-99.99,,2013-03-26 12:32:00,
2013-03-26 08:52:00,32.0,26.0,-100.00,North,-999,-999.0,-999.0,79,-99.99,,,-99.99,,2013-03-26 12:52:00,
2013-03-26 09:03:00,32.0,26.0,-100.00,North,-999,-999.0,-999.0,79,-99.99,,,-99.99,,2013-03-26 13:03:00,
2013-03-26 09:12:00,32.0,26.0,-100.00,North,-999,-999.0,-999.0,79,-99.99,,,-99.99,,2013-03-26 13:12:00,
2013-03-26 09:22:00,32.0,26.0,-100.00,North,-999,-999.0,-999.0,79,-99.99,,,-99.99,,2013-03-26 13:22:00,
2013-03-26 09:32:00,32.0,26.0,-100.00,North,-999,-999.0,-999.0,78,-99.99,,,-99.99,,2013-03-26 13:32:00,
2013-03-26 09:42:00,32.0,26.0,-100.00,North,-999,-999.0,-999.0,78,-99.99,,,-99.99,,2013-03-26 13:42:00,
2013-03-26 09:52:00,33.0,27.0,-100.00,North,-999,-999.0,-999.0,78,-99.99,,,-99.99,,2013-03-26 13:52:00,
2013-03-26 10:02:00,33.0,27.0,-100.00,North,-999,-999.0,-999.0,78,-99.99,,,-99.99,,2013-03-26 14:02:00,
2013-03-26 10:12:00,33.0,27.0,-100.00,North,-999,-999.0,-999.0,78,-99.99,,,-99.99,,2013-03-26 14:12:00,
2013-03-26 10:22:00,32.0,26.0,-100.00,North,-999,-999.0,-999.0,78,-99.99,,,-99.99,,2013-03-26 14:22:00,
2013-03-26 10:33:00,32.0,26.0,-100.00,North,-999,-999.0,-999.0,79,-99.99,,,-99.99,,2013-03-26 14:33:00,
2013-03-26 10:42:00,32.0,26.0,-100.00,North,-999,-999.0,-999.0,79,-99.99,,,-99.99,,2013-03-26 14:42:00,
2013-03-26 10:52:00,33.0,27.0,-100.00,North,-999,-999.0,-999.0,78,-99.99,,,-99.99,,2013-03-26 14:52:00,
2013-03-26 11:02:00,33.0,27.0,-100.00,North,-999,-999.0,-999.0,78,-99.99,,,-99.99,,2013-03-26 15:02:00,
2013-03-26 11:12:00,33.0,27.0,-100.00,North,-999,-999.0,-999.0,78,-99.99,,,-99.99,,2013-03-26 15:12:00,
2013-03-26 11:22:00,35.0,28.0,-100.00,North,-999,-999.0,-999.0,76,-99.99,,,-99.99,,2013-03-26 15:22:00,
2013-03-26 11:33:00,35.0,28.0,-100.00,North,-999,-999.0,-999.0,76,-99.99,,,-99.99,,2013-03-26 15:33:00,
2013-03-26 11:43:00,35.0,28.0,-100.00,North,-999,-999.0,-999.0,76,-99.99,,,-99.99,,2013-03-26 15:43:00,
2013-03-26 11:53:00,37.0,29.0,-100.00,North,-999,-999.0,-999.0,72,-99.99,,,-99.99,,2013-03-26 15:53:00,
2013-03-26 12:03:00,36.0,28.0,-100.00,North,-999,-999.0,-999.0,73,-99.99,,,-99.99,,2013-03-26 16:03:00,
2013-03-26 12:13:00,36.0,28.0,-100.00,North,-999,-999.0,-999.0,73,-99.99,,,-99.99,,2013-03-26 16:13:00,
2013-03-26 12:23:00,41.0,33.0,-100.00,North,-999,-999.0,-999.0,74,-99.99,,,-99.99,,2013-03-26 16:23:00,
2013-03-26 12:32:00,41.0,32.0,-100.00,North,-999,-999.0,-999.0,70,-99.99,,,-99.99,,2013-03-26 16:32:00,
2013-03-26 12:42:00,41.0,32.0,-100.00,North,-999,-999.0,-999.0,70,-99.99,,,-99.99,,2013-03-26 16:42:00,
2013-03-26 12:54:00,41.0,30.0,-100.00,North,-999,-999.0,-999.0,64,-99.99,,,-99.99,,2013-03-26 16:54:00,
2013-03-26 13:03:00,43.0,32.0,-100.00,North,-999,-999.0,-999.0,65,-99.99,,,-99.99,,2013-03-26 17:03:00,
2013-03-26 13:12:00,43.0,32.0,-100.00,North,-999,-999.0,-999.0,65,-99.99,,,-99.99,,2013-03-26 17:12:00,
2013-03-26 13:23:00,42.0,30.0,-100.00,North,-999,-999.0,-999.0,62,-99.99,,,-99.99,,2013-03-26 17:23:00,
2013-03-26 13:32:00,42.0,30.0,-100.00,North,-999,-999.0,-999.0,61,-99.99,,,-99.99,,2013-03-26 17:32:00,
2013-03-26 13:42:00,42.0,30.0,-100.00,North,-999,-999.0,-999.0,61,-99.99,,,-99.99,,2013-03-26 17:42:00,
2013-03-26 13:53:00,39.0,27.0,-100.00,North,-999,-999.0,-999.0,62,-99.99,,,-99.99,,2013-03-26 17:53:00,
2013-03-26 14:02:00,41.0,29.0,-100.00,North,-999,-999.0,-999.0,63,-99.99,,,-99.99,,2013-03-26 18:02:00,
2013-03-26 14:12:00,41.0,29.0,-100.00,North,-999,-999.0,-999.0,63,-99.99,,,-99.99,,2013-03-26 18:12:00,
2013-03-26 14:23:00,41.0,29.0,-100.00,North,-999,-999.0,-999.0,63,-99.99,,,-99.99,,2013-03-26 18:23:00,
2013-03-26 14:34:00,41.0,29.0,-100.00,North,-999,-999.0,-999.0,62,-99.99,,,-99.99,,2013-03-26 18:34:00,
2013-03-26 14:42:00,41.0,29.0,-100.00,North,-999,-999.0,-999.0,62,-99.99,,,-99.99,,2013-03-26 18:42:00,
2013-03-26 14:53:00,41.0,28.0,-100.00,North,-999,-999.0,-999.0,59,-99.99,,,-99.99,,2013-03-26 18:53:00,
2013-03-26 15:03:00,41.0,28.0,-100.00,North,-999,-999.0,-999.0,59,-99.99,,,-99.99,,2013-03-26 19:03:00,
2013-03-26 15:22:00,41.0,27.0,-100.00,North,-999,-999.0,-999.0,58,-99.99,,,-99.99,,2013-03-26 19:22:00,
2013-03-26 15:32:00,41.0,27.0,-100.00,North,-999,-999.0,-999.0,58,-99.99,,,-99.99,,2013-03-26 19:32:00,
2013-03-26 15:42:00,41.0,27.0,-100.00,North,-999,-999.0,-999.0,58,-99.99,,,-99.99,,2013-03-26 19:42:00,
2013-03-26 15:53:00,41.0,27.0,-100.00,North,-999,-999.0,-999.0,58,-99.99,,,-99.99,,2013-03-26 19:53:00,
2013-03-26 16:02:00,40.0,26.0,-100.00,North,-999,-999.0,-999.0,57,-99.99,,,-99.99,,2013-03-26 20:02:00,
2013-03-26 16:13:00,40.0,26.0,-100.00,North,-999,-999.0,-999.0,57,-99.99,,,-99.99,,2013-03-26 20:13:00,
2013-03-26 16:23:00,40.0,26.0,-100.00,North,-999,-999.0,-999.0,56,-99.99,,,-99.99,,2013-03-26 20:23:00,
2013-03-26 16:32:00,41.0,27.0,-100.00,North,-999,-999.0,-999.0,56,-99.99,,,-99.99,,2013-03-26 20:32:00,
2013-03-26 16:43:00,41.0,27.0,-100.00,North,-999,-999.0,-999.0,56,-99.99,,,-99.99,,2013-03-26 20:43:00,
2013-03-26 16:50:00,40.0,26.0,-100.00,North,-999,-999.0,-999.0,58,-99.99,,,-99.99,,2013-03-26 20:50:00,
2013-03-26 16:53:00,41.0,27.0,-100.00,North,-999,-999.0,-999.0,56,-99.99,,,-99.99,,2013-03-26 20:53:00,
2013-03-26 17:02:00,41.0,27.0,-100.00,North,-999,-999.0,-999.0,56,-99.99,,,-99.99,,2013-03-26 21:02:00,
2013-03-26 17:12:00,41.0,27.0,-100.00,North,-999,-999.0,-999.0,56,-99.99,,,-99.99,,2013-03-26 21:12:00,
2013-03-26 17:22:00,40.0,26.0,-100.00,North,-999,-999.0,-999.0,58,-99.99,,,-99.99,,2013-03-26 21:22:00,
2013-03-26 17:33:00,40.0,26.0,-100.00,North,-999,-999.0,-999.0,58,-99.99,,,-99.99,,2013-03-26 21:33:00,
2013-03-26 17:43:00,40.0,26.0,-100.00,North,-999,-999.0,-999.0,58,-99.99,,,-99.99,,2013-03-26 21:43:00,
2013-03-26 19:23:00,34.0,21.0,-100.00,North,-999,-999.0,-999.0,58,-99.99,,,-99.99,,2013-03-26 23:23:00,
2013-03-26 19:32:00,33.0,20.0,-100.00,North,-999,-999.0,-999.0,58,-99.99,,,-99.99,,2013-03-26 23:32:00,
2013-03-26 19:43:00,33.0,20.0,-100.00,North,-999,-999.0,-999.0,58,-99.99,,,-99.99,,2013-03-26 23:43:00,
2013-03-26 19:53:00,33.0,20.0,-100.00,North,-999,-999.0,-999.0,58,-99.99,,,-99.99,,2013-03-26 23:53:00,
2013-03-26 20:02:00,30.0,20.0,-100.00,North,-999,-999.0,-999.0,67,-99.99,,,-99.99,,2013-03-27 00:02:00,
2013-03-26 20:12:00,30.0,20.0,-100.00,North,-999,-999.0,-999.0,67,-99.99,,,-99.99,,2013-03-27 00:12:00,
2013-03-26 20:22:00,30.0,21.0,-100.00,North,-999,-999.0,-999.0,69,-99.99,,,-99.99,,2013-03-27 00:22:00,
2013-03-26 20:33:00,29.0,20.0,-100.00,North,-999,-999.0,-999.0,70,-99.99,,,-99.99,,2013-03-27 00:33:00,
2013-03-26 20:42:00,29.0,20.0,-100.00,North,-999,-999.0,-999.0,70,-99.99,,,-99.99,,2013-03-27 00:42:00,
2013-03-26 20:52:00,28.0,19.0,-100.00,North,-999,-999.0,-999.0,69,-99.99,,,-99.99,,2013-03-27 00:52:00,
2013-03-26 21:02:00,27.0,19.0,-100.00,North,-999,-999.0,-999.0,72,-99.99,,,-99.99,,2013-03-27 01:02:00,
2013-03-26 21:12:00,27.0,19.0,-100.00,North,-999,-999.0,-999.0,72,-99.99,,,-99.99,,2013-03-27 01:12:00,
2013-03-26 21:23:00,27.0,19.0,-100.00,North,-999,-999.0,-999.0,72,-99.99,,,-99.99,,2013-03-27 01:23:00,
2013-03-26 21:33:00,26.0,19.0,-100.00,North,-999,-999.0,-999.0,74,-99.99,,,-99.99,,2013-03-27 01:33:00,
2013-03-26 21:42:00,26.0,19.0,-100.00,North,-999,-999.0,-999.0,74,-99.99,,,-99.99,,2013-03-27 01:42:00,
2013-03-26 21:53:00,26.0,19.0,-100.00,North,-999,-999.0,-999.0,74,-99.99,,,-99.99,,2013-03-27 01:53:00,
2013-03-26 22:03:00,26.0,19.0,-100.00,North,-999,-999.0,-999.0,75,-99.99,,,-99.99,,2013-03-27 02:03:00,
2013-03-26 22:12:00,26.0,19.0,-100.00,North,-999,-999.0,-999.0,75,-99.99,,,-99.99,,2013-03-27 02:12:00,
2013-03-26 22:22:00,25.0,18.0,-100.00,North,-999,-999.0,-999.0,75,-99.99,,,-99.99,,2013-03-27 02:22:00,
2013-03-26 22:32:00,25.0,18.0,-100.00,North,-999,-999.0,-999.0,75,-99.99,,,-99.99,,2013-03-27 02:32:00,
2013-03-26 22:42:00,25.0,18.0,-100.00,North,-999,-999.0,-999.0,75,-99.99,,,-99.99,,2013-03-27 02:42:00,
2013-03-26 22:53:00,25.0,18.0,-100.00,North,-999,-999.0,-999.0,74,-99.99,,,-99.99,,2013-03-27 02:53:00,
2013-03-26 23:02:00,25.0,18.0,-100.00,North,-999,-999.0,-999.0,74,-99.99,,,-99.99,,2013-03-27 03:02:00,
2013-03-26 23:12:00,25.0,18.0,-100.00,North,-999,-999.0,-999.0,74,-99.99,,,-99.99,,2013-03-27 03:12:00,
2013-03-26 23:22:00,24.0,18.0,-100.00,North,-999,-999.0,-999.0,77,-99.99,,,-99.99,,2013-03-27 03:22:00,
2013-03-26 23:33:00,24.0,18.0,-100.00,North,-999,-999.0,-999.0,77,-99.99,,,-99.99,,2013-03-27 03:33:00,
2013-03-26 23:43:00,24.0,18.0,-100.00,North,-999,-999.0,-999.0,77,-99.99,,,-99.99,,2013-03-27 03:43:00,
2013-03-26 23:53:00,24.0,18.0,-100.00,North,-999,-999.0,-999.0,77,-99.99,,,-99.99,,2013-03-27 03:53:00,